Weather in Toryanoye

Russia / Volgograd Oblast     51°02′07″N   43°31′45″E
temp.,
°C
wind,
m/s
gust,
m/s
humid.,
%
clouds,
%
prec.,
mm/h
press.,
hPa
HPBL,
m
3 august, tue
tue300:00+26s411295 0.0 1009176
03:00+24sw223786 0.0 101024
06:00+24ssw334570 0.0 101055
09:00+30sw463527 0.0 1010414
12:00+35wsw572599 0.0 10102463
15:00+34w372639 0.0 10092549
18:00+24sse2468100 2.5 1012143
21:00+22wsw4677100 5.6 101292
4 august, wed
wed400:00+21ene2380100 0.1 101147
03:00+20nne3585100 0.3 1012113
06:00+20n359298 1.4 1012189
09:00+24nnw2369100 1.4 1013805
12:00+27nw4452100 0.0 10131663
15:00+26nw3453100 0.2 1013852
18:00+24nnw4658100 0.1 1014715
21:00+20nnw367099 0.1 1015114
5 august, thu
thu500:00+18n33746 0.0 101634
03:00+18n227733 0.0 101623
06:00+18nnw24746 0.0 1017114
09:00+24n344372 0.0 1018719
12:00+27nnw3333100 0.0 10172372
15:00+28nnw43295 0.0 10162372
18:00+26nne233721 0.0 1016110
21:00+20ene3348100 0.0 101738
6 august, fri
fri600:00+19e355199 0.0 101787
03:00+17ese375559 0.0 1016113
06:00+18se38583 0.0 1017170
09:00+25se45403 0.0 1016666
12:00+29se32305 0.0 10161871
15:00+30ese332615 0.0 10142203
18:00+29ese34325 0.0 1013157
21:00+22ese410405 0.0 1014154
7 august, sat
sat700:00+20ese4114111 0.0 1014176
03:00+19ese412445 0.0 1014201
06:00+19ese41245100 0.0 1014231
09:00+26ese6832100 0.0 1014553
12:00+31ese562496 0.0 10131477
15:00+31se5621100 0.0 10121841
18:00+29ene4829100 0.0 1012187
21:00+25ene41130100 0.0 1012170